Hourly Data Report for July 08, 2021

WINDSOR A
ONTARIO
Current Station Operator: NAVCAN

42°16'34.000" N
82°57'19.000" W
189.60 m
6139530
71538
YQG

Download Data

Hourly Data (July 2021)
Hourly Data Report for July 8, 2021
TIME
LST
Temp Definition
°C
Dew Point Definition
°C
Rel Hum Definition
%
Precip. Amount Definition
mm

Wind Dir Definition
10's deg

Wind Spd Definition
km/h
Visibility Definition
km
Stn Press Definition
kPa
Hmdx Definition


Wind Chill Definition


Weather Definition


00:00 21.9 20.9 94 0.0 18 15 16.1 98.98 30   LegendNANA
01:00 22.0 21.0 94 0.0 17 11 16.1 98.93 30   LegendNANA
02:00 22.1 21.3 95 0.0 20 5 16.1 98.87 31   LegendNANA
03:00 21.0 20.7 98 0.0   0 6.4 98.84 29   Fog
04:00 21.1 20.8 98 0.0 16 4 6.4 98.82 29   Fog
05:00 21.1 20.8 98 0.0 30 5 8.1 98.82 29   Fog
06:00 20.9 20.3 96 1.5 LegendMM 4 12.9 98.84 29   Thunderstorms
07:00 21.3 20.5 95 0.0 7 5 16.1 98.86 29   LegendNANA
08:00 21.3 20.4 94 0.0 12 9 16.1 98.87 29   Rain
09:00 22.6 20.8 89 0.0 15 8 16.1 98.84 31   LegendNANA
10:00 23.5 20.8 85 0.0 26 8 12.9 98.82 32   LegendNANA
11:00 23.5 21.0 86 0.2 26 8 16.1 98.85 32   Rain
12:00 23.4 21.4 88 0.0 7 9 16.1 98.81 32   LegendNANA
13:00 24.4 21.5 83 0.0 LegendMM 13 16.1 98.78 33   LegendNANA
14:00 24.8 21.4 81 0.0 LegendMM 4 14.5 98.76 34   Rain
15:00 23.8 21.5 87 2.0 24 8 14.5 98.79 33   Thunderstorms, Rain
16:00 25.4 20.8 75 0.0 18 11 16.1 98.74 34   LegendNANA
17:00 23.2 20.6 85 0.0 8 11 16.1 98.79 31   LegendNANA
18:00 23.0 21.7 92 7.9   0 16.1 98.78 32   LegendNANA
19:00 22.7 20.7 88 0.0 LegendMM 5 16.1 98.81 31   LegendNANA
20:00 22.1 20.0 88 0.0 36 15 16.1 98.85 30   LegendNANA
21:00 20.9 18.9 88 0.0 1 21 16.1 98.95 28   LegendNANA
22:00 19.4 17.6 89 0.0 2 18 16.1 99.03     LegendNANA
23:00 18.5 16.3 87 0.0 1 18 16.1 99.04     LegendNANA

Notes on Data Quality.

Legend

  • E = Estimated
  • M = Missing
  • NA = Not Available*
  • [empty] = Indicates an unobserved value
Date modified: